,,PA_Meas_PMT16A,,PR_Meas_QMR101_102,,RH_Meas_QMH101,,SR_Meas_QMS101,,TA_Meas_QMH101,,GenWind,,GenWind,
time,status,PA,status,PR,status,RH,status,SR,status,TA,status,DirAvg,status,SpdAvg,
2012-05-23, 00:00:04,VALID,918.488,VALID,0,VALID,96.8936,VALID,0,VALID,20.4423,VALID,14,VALID,1.36211,
2012-05-23, 00:01:04,VALID,918.478,VALID,0,VALID,96.8707,VALID,0,VALID,20.4423,VALID,32,VALID,1.3668,
2012-05-23, 00:02:04,VALID,918.436,VALID,0,VALID,96.8403,VALID,0,VALID,20.4228,VALID,357,VALID,1.76367,
2012-05-23, 00:03:04,VALID,918.452,VALID,0,VALID,96.8326,VALID,0,VALID,20.4228,VALID,356,VALID,0.995703,
2012-05-23, 00:04:04,VALID,918.46,VALID,0,VALID,96.8174,VALID,0,VALID,20.4439,VALID,352,VALID,1.26914,
2012-05-23, 00:05:04,VALID,918.442,VALID,0,VALID,96.7869,VALID,0,VALID,20.4033,VALID,355,VALID,1.17617,
2012-05-23, 00:06:04,VALID,918.427,VALID,0,VALID,96.7793,VALID,0,VALID,20.4228,VALID,353,VALID,0.871875,
2012-05-23, 00:07:04,VALID,918.397,VALID,0,VALID,96.7945,VALID,0,VALID,20.4033,VALID,321,VALID,1.21055,
2012-05-23, 00:08:04,VALID,918.407,VALID,0,VALID,96.7488,VALID,0,VALID,20.3838,VALID,345,VALID,1.51992,
2012-05-23, 00:09:04,VALID,918.374,VALID,0,VALID,96.7411,VALID,0,VALID,20.4033,VALID,350,VALID,1.05977,
2012-05-23, 00:10:04,VALID,918.372,VALID,0,VALID,96.7183,VALID,0,VALID,20.3838,VALID,6,VALID,1.09844,
2012-05-23, 00:11:04,VALID,918.38,VALID,0,VALID,96.7411,VALID,0,VALID,20.4033,VALID,6,VALID,0.589844,
2012-05-23, 00:12:04,VALID,918.36,VALID,0,VALID,96.7335,VALID,0,VALID,20.3838,VALID,6,VALID,1.03672,
2012-05-23, 00:13:04,VALID,918.321,VALID,0,VALID,96.7183,VALID,0,VALID,20.4049,VALID,334,VALID,0.568359,
2012-05-23, 00:14:04,VALID,918.34,VALID,0,VALID,96.7259,VALID,0,VALID,20.3838,VALID,357,VALID,1.1,
2012-05-23, 00:15:04,VALID,918.295,VALID,0,VALID,96.7259,VALID,0,VALID,20.3643,VALID,341,VALID,1.24414,
2012-05-23, 00:16:04,VALID,918.278,VALID,0,VALID,96.7259,VALID,0,VALID,20.3643,VALID,8,VALID,1.38164,
2012-05-23, 00:17:04,VALID,918.3,VALID,0,VALID,96.7335,VALID,0,VALID,20.3643,VALID,350,VALID,0.716016,
2012-05-23, 00:18:04,VALID,918.249,VALID,0,VALID,96.7183,VALID,0,VALID,20.3448,VALID,349,VALID,1.64414,
2012-05-23, 00:19:04,VALID,918.261,VALID,0,VALID,96.7107,VALID,0,VALID,20.3448,VALID,347,VALID,1.44883,
2012-05-23, 00:20:04,VALID,918.25,VALID,0,VALID,96.7183,VALID,0,VALID,20.3253,VALID,351,VALID,1.22852,
2012-05-23, 00:21:04,VALID,918.238,VALID,0,VALID,96.7335,VALID,0,VALID,20.3253,VALID,8,VALID,0.942578,
2012-05-23, 00:22:04,VALID,918.178,VALID,0,VALID,96.6954,VALID,0,VALID,20.3448,VALID,357,VALID,1.11055,
2012-05-23, 00:23:04,VALID,918.183,VALID,0,VALID,96.7183,VALID,0,VALID,20.3448,VALID,6,VALID,1.48398,
2012-05-23, 00:24:04,VALID,918.177,VALID,0,VALID,96.7183,VALID,0,VALID,20.3659,VALID,346,VALID,0.56875,
2012-05-23, 00:25:04,VALID,918.171,VALID,0,VALID,96.6878,VALID,0,VALID,20.3854,VALID,352,VALID,0.648047,
2012-05-23, 00:26:04,VALID,918.173,VALID,0,VALID,96.7259,VALID,0.107441,VALID,20.3628,VALID,32,VALID,0.480078,
2012-05-23, 00:27:04,VALID,918.167,VALID,0,VALID,96.6649,VALID,0,VALID,20.3433,VALID,332,VALID,1.23359,
2012-05-23, 00:28:04,VALID,918.163,VALID,0,VALID,96.642,VALID,0.107441,VALID,20.3222,VALID,321,VALID,0.346094,
2012-05-23, 00:29:04,VALID,918.124,VALID,0,VALID,96.6573,VALID,0.107441,VALID,20.3433,VALID,321,VALID,0.267188,
2012-05-23, 00:30:04,VALID,918.069,VALID,0,VALID,96.6725,VALID,0,VALID,20.3238,VALID,321,VALID,0.495313,
2012-05-23, 00:31:04,VALID,918.061,VALID,0,VALID,96.6802,VALID,0.107441,VALID,20.3238,VALID,321,VALID,0,
2012-05-23, 00:32:04,VALID,918.055,VALID,0,VALID,96.6649,VALID,0.107441,VALID,20.3238,VALID,321,VALID,0.350781,
2012-05-23, 00:33:04,VALID,918.008,VALID,0,VALID,96.6725,VALID,0.107441,VALID,20.3238,VALID,321,VALID,0.294531,
2012-05-23, 00:34:04,VALID,917.994,VALID,0,VALID,96.6802,VALID,0,VALID,20.3043,VALID,321,VALID,0,
2012-05-23, 00:35:04,VALID,917.948,VALID,0,VALID,96.6878,VALID,0.107441,VALID,20.3448,VALID,321,VALID,0,
2012-05-23, 00:36:04,VALID,917.922,VALID,0,VALID,96.6954,VALID,0.107441,VALID,20.3238,VALID,321,VALID,0,
2012-05-23, 00:37:04,VALID,917.896,VALID,0,VALID,96.642,VALID,0,VALID,20.2848,VALID,321,VALID,0.328906,
2012-05-23, 00:38:04,VALID,917.915,VALID,0,VALID,96.6649,VALID,0.107441,VALID,20.3448,VALID,321,VALID,0,
2012-05-23, 00:39:04,VALID,917.885,VALID,0,VALID,96.6649,VALID,0.107441,VALID,20.3238,VALID,321,VALID,0,
2012-05-23, 00:40:04,VALID,917.883,VALID,0,VALID,96.6039,VALID,0,VALID,20.3238,VALID,321,VALID,0,
2012-05-23, 00:41:04,VALID,917.872,VALID,0,VALID,96.5506,VALID,0,VALID,20.3253,VALID,321,VALID,0,
2012-05-23, 00:42:04,VALID,917.873,VALID,0,VALID,96.5353,VALID,0,VALID,20.3058,VALID,321,VALID,0.238672,
2012-05-23, 00:43:04,VALID,917.86,VALID,0,VALID,96.4972,VALID,0,VALID,20.3269,VALID,321,VALID,0.231641,
2012-05-23, 00:44:04,VALID,917.829,VALID,0,VALID,96.4819,VALID,0,VALID,20.3074,VALID,321,VALID,0.166016,
2012-05-23, 00:45:04,VALID,917.835,VALID,0,VALID,96.4819,VALID,0,VALID,20.3058,VALID,321,VALID,0,
2012-05-23, 00:46:04,VALID,917.789,VALID,0,VALID,96.5048,VALID,0,VALID,20.3058,VALID,321,VALID,0,
2012-05-23, 00:47:04,VALID,917.796,VALID,0,VALID,96.5353,VALID,0,VALID,20.3464,VALID,321,VALID,0,
2012-05-23, 00:48:04,VALID,917.782,VALID,0,VALID,96.5048,VALID,0,VALID,20.3269,VALID,321,VALID,0,
2012-05-23, 00:49:04,VALID,917.775,VALID,0,VALID,96.5124,VALID,0,VALID,20.3058,VALID,321,VALID,0,
2012-05-23, 00:50:04,VALID,917.745,VALID,0,VALID,96.5582,VALID,0,VALID,20.3058,VALID,321,VALID,0,
2012-05-23, 00:51:04,VALID,917.747,VALID,0,VALID,96.5582,VALID,0,VALID,20.3074,VALID,321,VALID,0.255078,
2012-05-23, 00:52:04,VALID,917.717,VALID,0,VALID,96.5582,VALID,0,VALID,20.3074,VALID,321,VALID,0.0679687,
2012-05-23, 00:53:04,VALID,917.738,VALID,0,VALID,96.5658,VALID,0,VALID,20.2863,VALID,321,VALID,0.0363281,
2012-05-23, 00:54:04,VALID,917.734,VALID,0,VALID,96.5506,VALID,0,VALID,20.2863,VALID,321,VALID,0.669141,
2012-05-23, 00:55:04,VALID,917.721,VALID,0,VALID,96.5811,VALID,0,VALID,20.2668,VALID,321,VALID,0.812109,
2012-05-23, 00:56:04,VALID,917.748,VALID,0,VALID,96.6192,VALID,0,VALID,20.2458,VALID,321,VALID,0.847266,
2012-05-23, 00:57:04,VALID,917.727,VALID,0,VALID,96.6115,VALID,0,VALID,20.2263,VALID,321,VALID,0.96875,
2012-05-23, 00:58:04,VALID,917.732,VALID,0,VALID,96.6649,VALID,0,VALID,20.2263,VALID,321,VALID,0.660547,
2012-05-23, 00:59:04,VALID,917.716,VALID,0,VALID,96.7107,VALID,0.107441,VALID,20.2247,VALID,321,VALID,0.498437,
2012-05-23, 01:00:04,VALID,917.72,VALID,0,VALID,96.764,VALID,0,VALID,20.2668,VALID,321,VALID,0,
2012-05-23, 01:01:04,VALID,917.705,VALID,0,VALID,96.7716,VALID,0,VALID,20.2653,VALID,321,VALID,0,
2012-05-23, 01:02:04,VALID,917.716,VALID,0,VALID,96.7945,VALID,0,VALID,20.2668,VALID,321,VALID,0,
2012-05-23, 01:03:04,VALID,917.711,VALID,0,VALID,96.8021,VALID,0,VALID,20.2458,VALID,321,VALID,0,
2012-05-23, 01:04:04,VALID,917.701,VALID,0,VALID,96.7869,VALID,0,VALID,20.2668,VALID,321,VALID,0,
2012-05-23, 01:05:04,VALID,917.692,VALID,0,VALID,96.7945,VALID,0,VALID,20.2668,VALID,321,VALID,0,
2012-05-23, 01:06:04,VALID,917.695,VALID,0,VALID,96.825,VALID,0,VALID,20.2458,VALID,321,VALID,0,
2012-05-23, 01:07:04,VALID,917.671,VALID,0,VALID,96.825,VALID,0.107441,VALID,20.2879,VALID,321,VALID,0,
2012-05-23, 01:08:04,VALID,917.636,VALID,0,VALID,96.8021,VALID,0,VALID,20.2458,VALID,321,VALID,0,
2012-05-23, 01:09:04,VALID,917.619,VALID,0,VALID,96.8479,VALID,0.107441,VALID,20.2458,VALID,321,VALID,0.320703,
2012-05-23, 01:10:04,VALID,917.602,VALID,0,VALID,96.8403,VALID,0,VALID,20.2458,VALID,321,VALID,0.0957031,
2012-05-23, 01:11:04,VALID,917.566,VALID,0,VALID,96.8555,VALID,0,VALID,20.2668,VALID,321,VALID,0,
2012-05-23, 01:12:04,VALID,917.542,VALID,0,VALID,96.8631,VALID,0,VALID,20.2458,VALID,321,VALID,0,
2012-05-23, 01:13:04,VALID,917.504,VALID,0,VALID,96.8403,VALID,0,VALID,20.2278,VALID,321,VALID,0,
2012-05-23, 01:14:04,VALID,917.503,VALID,0,VALID,96.8707,VALID,0,VALID,20.2068,VALID,321,VALID,0.0101562,
2012-05-23, 01:15:04,VALID,917.495,VALID,0,VALID,96.8707,VALID,0,VALID,20.2263,VALID,321,VALID,0,
2012-05-23, 01:16:04,VALID,917.507,VALID,0,VALID,96.8784,VALID,0.107441,VALID,20.2263,VALID,321,VALID,0,
2012-05-23, 01:17:04,VALID,917.507,VALID,0,VALID,96.8936,VALID,0,VALID,20.2263,VALID,321,VALID,0,
2012-05-23, 01:18:04,VALID,917.506,VALID,0,VALID,96.8936,VALID,0,VALID,20.2278,VALID,321,VALID,0,
2012-05-23, 01:19:04,VALID,917.498,VALID,0,VALID,96.9089,VALID,0,VALID,20.2068,VALID,321,VALID,0,
2012-05-23, 01:20:04,VALID,917.52,VALID,0,VALID,96.9394,VALID,0.107441,VALID,20.2068,VALID,321,VALID,0,
2012-05-23, 01:21:04,VALID,917.513,VALID,0,VALID,96.9394,VALID,0,VALID,20.2473,VALID,321,VALID,0,
2012-05-23, 01:22:04,VALID,917.473,VALID,0,VALID,96.9317,VALID,0,VALID,20.2068,VALID,321,VALID,0,
2012-05-23, 01:23:04,VALID,917.471,VALID,0,VALID,96.9165,VALID,0,VALID,20.2068,VALID,321,VALID,0,
2012-05-23, 01:24:04,VALID,917.474,VALID,0,VALID,96.8936,VALID,0,VALID,20.2083,VALID,321,VALID,0,
2012-05-23, 01:25:04,VALID,917.458,VALID,0,VALID,96.9165,VALID,0.107441,VALID,20.1678,VALID,321,VALID,0,
2012-05-23, 01:26:04,VALID,917.457,VALID,0,VALID,96.947,VALID,0.107441,VALID,20.1873,VALID,321,VALID,0.531641,
2012-05-23, 01:27:04,VALID,917.437,VALID,0,VALID,96.947,VALID,0,VALID,20.2068,VALID,321,VALID,0.453516,
2012-05-23, 01:28:04,VALID,917.441,VALID,0,VALID,96.9622,VALID,0,VALID,20.2278,VALID,321,VALID,0.421484,
2012-05-23, 01:29:04,VALID,917.402,VALID,0,VALID,96.9622,VALID,0,VALID,20.2068,VALID,321,VALID,0.753125,
2012-05-23, 01:30:04,VALID,917.389,VALID,0,VALID,96.9851,VALID,0.107441,VALID,20.2083,VALID,321,VALID,0.746094,
2012-05-23, 01:31:04,VALID,917.38,VALID,0,VALID,96.9698,VALID,0,VALID,20.2068,VALID,321,VALID,0.708594,
2012-05-23, 01:32:04,VALID,917.36,VALID,0,VALID,96.9927,VALID,0,VALID,20.2068,VALID,321,VALID,0.668359,
2012-05-23, 01:33:04,VALID,917.359,VALID,0,VALID,97.0003,VALID,0,VALID,20.2068,VALID,321,VALID,0.626172,
2012-05-23, 01:34:04,VALID,917.336,VALID,0,VALID,97.0232,VALID,0,VALID,20.2068,VALID,321,VALID,0.859766,
2012-05-23, 01:35:04,VALID,917.366,VALID,0,VALID,97.0156,VALID,0,VALID,20.2068,VALID,3,VALID,0.643359,
2012-05-23, 01:36:04,VALID,917.384,VALID,0,VALID,97.008,VALID,0,VALID,20.2278,VALID,343,VALID,0.820703,
2012-05-23, 01:37:04,VALID,917.374,VALID,0,VALID,97.0156,VALID,0,VALID,20.1678,VALID,342,VALID,0.666016,
2012-05-23, 01:38:04,VALID,917.358,VALID,0,VALID,97.0003,VALID,0,VALID,20.1873,VALID,342,VALID,0.444531,
2012-05-23, 01:39:04,VALID,917.353,VALID,0,VALID,97.0232,VALID,0,VALID,20.1873,VALID,342,VALID,0.574219,
2012-05-23, 01:40:04,VALID,917.364,VALID,0,VALID,97.0308,VALID,0,VALID,20.2068,VALID,342,VALID,0.00585938,
2012-05-23, 01:41:04,VALID,917.36,VALID,0,VALID,97.0385,VALID,0,VALID,20.2083,VALID,342,VALID,0.177344,
2012-05-23, 01:42:04,VALID,917.368,VALID,0,VALID,97.0461,VALID,0,VALID,20.1693,VALID,295,VALID,0.205078,
2012-05-23, 01:43:04,VALID,917.343,VALID,0,VALID,97.0232,VALID,0,VALID,20.1903,VALID,295,VALID,0.1875,
2012-05-23, 01:44:04,VALID,917.317,VALID,0,VALID,97.0308,VALID,0,VALID,20.1903,VALID,295,VALID,0.328516,
2012-05-23, 01:45:04,VALID,917.308,VALID,0,VALID,97.0156,VALID,0,VALID,20.1708,VALID,295,VALID,0.667188,
2012-05-23, 01:46:04,VALID,917.321,VALID,0,VALID,97.0308,VALID,0,VALID,20.1708,VALID,295,VALID,0.195703,
2012-05-23, 01:47:04,VALID,917.305,VALID,0,VALID,97.0156,VALID,0,VALID,20.1708,VALID,295,VALID,0,
2012-05-23, 01:48:04,VALID,917.337,VALID,0,VALID,97.0232,VALID,0,VALID,20.1708,VALID,295,VALID,0,
2012-05-23, 01:49:04,VALID,917.273,VALID,0,VALID,97.0308,VALID,0,VALID,20.1498,VALID,295,VALID,0,
2012-05-23, 01:50:04,VALID,917.274,VALID,0,VALID,97.0461,VALID,0,VALID,20.1693,VALID,295,VALID,0,
2012-05-23, 01:51:04,VALID,917.216,VALID,0,VALID,97.0461,VALID,0,VALID,20.1693,VALID,295,VALID,0.147656,
2012-05-23, 01:52:04,VALID,917.246,VALID,0,VALID,97.0537,VALID,0,VALID,20.1693,VALID,295,VALID,0.310156,
2012-05-23, 01:53:04,VALID,917.231,VALID,0,VALID,97.0461,VALID,0,VALID,20.1708,VALID,295,VALID,0.135547,
2012-05-23, 01:54:04,VALID,917.192,VALID,0,VALID,97.0613,VALID,0,VALID,20.1498,VALID,295,VALID,0,
2012-05-23, 01:55:04,VALID,917.138,VALID,0,VALID,97.0461,VALID,0,VALID,20.1708,VALID,295,VALID,0.391797,
2012-05-23, 01:56:04,VALID,917.166,VALID,0,VALID,97.0537,VALID,0,VALID,20.1483,VALID,295,VALID,0.219922,
2012-05-23, 01:57:04,VALID,917.128,VALID,0,VALID,97.0461,VALID,0.107441,VALID,20.1483,VALID,295,VALID,0,
2012-05-23, 01:58:04,VALID,917.135,VALID,0,VALID,97.069,VALID,0.107441,VALID,20.1888,VALID,295,VALID,0.00429688,
2012-05-23, 01:59:04,VALID,917.103,VALID,0,VALID,97.0994,VALID,0,VALID,20.1873,VALID,295,VALID,0,
2012-05-23, 02:00:04,VALID,917.098,VALID,0,VALID,97.0842,VALID,0,VALID,20.1873,VALID,295,VALID,0,
2012-05-23, 02:01:04,VALID,917.089,VALID,0,VALID,97.0918,VALID,0,VALID,20.1888,VALID,295,VALID,0,
2012-05-23, 02:02:04,VALID,917.068,VALID,0,VALID,97.069,VALID,0,VALID,20.1483,VALID,295,VALID,0,
2012-05-23, 02:03:04,VALID,917.066,VALID,0,VALID,97.0918,VALID,0,VALID,20.1678,VALID,295,VALID,0,
2012-05-23, 02:04:04,VALID,917.048,VALID,0,VALID,97.069,VALID,0,VALID,20.1483,VALID,295,VALID,0,
2012-05-23, 02:05:04,VALID,917.036,VALID,0,VALID,97.0766,VALID,0.107441,VALID,20.1483,VALID,295,VALID,0,
2012-05-23, 02:06:04,VALID,917.058,VALID,0,VALID,97.0918,VALID,0,VALID,20.1693,VALID,295,VALID,0.405859,
2012-05-23, 02:07:04,VALID,917.063,VALID,0,VALID,97.0918,VALID,0,VALID,20.1288,VALID,295,VALID,0.203906,
2012-05-23, 02:08:04,VALID,917.019,VALID,0,VALID,97.069,VALID,0.107441,VALID,20.1288,VALID,295,VALID,0.652344,
2012-05-23, 02:09:04,VALID,917.005,VALID,0,VALID,97.0842,VALID,0,VALID,20.1693,VALID,295,VALID,0,
2012-05-23, 02:10:04,VALID,916.972,VALID,0,VALID,97.0842,VALID,0.107441,VALID,20.1693,VALID,295,VALID,0,
2012-05-23, 02:11:04,VALID,916.964,VALID,0,VALID,97.0918,VALID,0,VALID,20.1288,VALID,295,VALID,0,
2012-05-23, 02:12:04,VALID,916.951,VALID,0,VALID,97.0918,VALID,0,VALID,20.1498,VALID,295,VALID,0,
2012-05-23, 02:13:04,VALID,916.988,VALID,0,VALID,97.0994,VALID,0,VALID,20.1288,VALID,295,VALID,0,
2012-05-23, 02:14:04,VALID,916.939,VALID,0,VALID,97.1147,VALID,0,VALID,20.1288,VALID,295,VALID,0,
2012-05-23, 02:15:04,VALID,916.932,VALID,0,VALID,97.0994,VALID,0,VALID,20.1288,VALID,295,VALID,0,
2012-05-23, 02:16:04,VALID,916.937,VALID,0,VALID,97.1071,VALID,0.107441,VALID,20.1483,VALID,19,VALID,0.791797,
2012-05-23, 02:17:04,VALID,916.927,VALID,0,VALID,97.1223,VALID,0,VALID,20.1288,VALID,19,VALID,1.12227,
2012-05-23, 02:18:04,VALID,916.916,VALID,0,VALID,97.1147,VALID,0.107441,VALID,20.1483,VALID,19,VALID,1.20586,
2012-05-23, 02:19:04,VALID,916.939,VALID,0,VALID,97.1223,VALID,0.107441,VALID,20.1288,VALID,19,VALID,1.19727,
2012-05-23, 02:20:04,VALID,916.934,VALID,0,VALID,97.1223,VALID,0.107441,VALID,20.1288,VALID,19,VALID,1.13516,
2012-05-23, 02:21:04,VALID,916.964,VALID,0,VALID,97.1223,VALID,0.107441,VALID,20.1483,VALID,19,VALID,0.613672,
2012-05-23, 02:22:04,VALID,917.004,VALID,0,VALID,97.1223,VALID,0.107441,VALID,20.1483,VALID,19,VALID,0.612891,
2012-05-23, 02:23:04,VALID,916.979,VALID,0,VALID,97.1452,VALID,0.107441,VALID,20.1888,VALID,19,VALID,0.112891,
2012-05-23, 02:24:04,VALID,916.981,VALID,0,VALID,97.1147,VALID,0,VALID,20.1678,VALID,19,VALID,0.973047,
2012-05-23, 02:25:04,VALID,916.966,VALID,0,VALID,97.1223,VALID,0.107441,VALID,20.1678,VALID,19,VALID,0.676562,
2012-05-23, 02:26:04,VALID,916.984,VALID,0,VALID,97.1223,VALID,0,VALID,20.1888,VALID,19,VALID,0.633594,
2012-05-23, 02:27:04,VALID,916.948,VALID,0,VALID,97.1223,VALID,0,VALID,20.2083,VALID,19,VALID,0.512891,
2012-05-23, 02:28:04,VALID,916.96,VALID,0,VALID,97.1299,VALID,0,VALID,20.2083,VALID,19,VALID,0.407422,
2012-05-23, 02:29:04,VALID,916.977,VALID,0,VALID,97.1299,VALID,0,VALID,20.1888,VALID,19,VALID,0.5375,
2012-05-23, 02:30:04,VALID,916.983,VALID,0,VALID,97.1376,VALID,0,VALID,20.1888,VALID,19,VALID,0.693359,
2012-05-23, 02:31:04,VALID,916.967,VALID,0,VALID,97.1147,VALID,0,VALID,20.1888,VALID,19,VALID,0.980078,
2012-05-23, 02:32:04,VALID,916.969,VALID,0,VALID,97.1299,VALID,0,VALID,20.1888,VALID,19,VALID,1.05859,
2012-05-23, 02:33:04,VALID,916.947,VALID,0,VALID,97.1223,VALID,0,VALID,20.1693,VALID,19,VALID,0.903516,
2012-05-23, 02:34:04,VALID,916.989,VALID,0,VALID,97.1071,VALID,0,VALID,20.1498,VALID,356,VALID,1.29766,
2012-05-23, 02:35:04,VALID,916.974,VALID,0,VALID,97.0994,VALID,0,VALID,20.1498,VALID,25,VALID,0.85625,
2012-05-23, 02:36:04,VALID,916.983,VALID,0,VALID,97.0918,VALID,0,VALID,20.1303,VALID,25,VALID,0.535156,
2012-05-23, 02:37:04,VALID,916.954,VALID,0,VALID,97.1071,VALID,0,VALID,20.1693,VALID,25,VALID,0.245703,
2012-05-23, 02:38:04,VALID,916.961,VALID,0,VALID,97.1071,VALID,0,VALID,20.1693,VALID,26,VALID,0,
2012-05-23, 02:39:04,VALID,916.95,VALID,0,VALID,97.0994,VALID,0,VALID,20.1693,VALID,26,VALID,0,
2012-05-23, 02:40:04,VALID,916.959,VALID,0,VALID,97.1071,VALID,0,VALID,20.1693,VALID,26,VALID,0,
2012-05-23, 02:41:04,VALID,916.909,VALID,0,VALID,97.0994,VALID,0.107441,VALID,20.1873,VALID,25,VALID,0,
2012-05-23, 02:42:04,VALID,916.927,VALID,0,VALID,97.1299,VALID,0.107441,VALID,20.1873,VALID,25,VALID,0,
2012-05-23, 02:43:04,VALID,916.917,VALID,0,VALID,97.1071,VALID,0,VALID,20.1873,VALID,25,VALID,0,
2012-05-23, 02:44:04,VALID,916.918,VALID,0,VALID,97.1147,VALID,0.107441,VALID,20.1873,VALID,25,VALID,0,
2012-05-23, 02:45:04,VALID,916.958,VALID,0,VALID,97.1071,VALID,0,VALID,20.1678,VALID,25,VALID,0,
2012-05-23, 02:46:04,VALID,916.929,VALID,0,VALID,97.1071,VALID,0.107441,VALID,20.1678,VALID,25,VALID,0.267969,
2012-05-23, 02:47:04,VALID,916.918,VALID,0,VALID,97.1147,VALID,0.107441,VALID,20.2068,VALID,25,VALID,0.196484,
2012-05-23, 02:48:04,VALID,916.93,VALID,0,VALID,97.1147,VALID,0.107441,VALID,20.1678,VALID,25,VALID,0.160547,
2012-05-23, 02:49:04,VALID,916.931,VALID,0,VALID,97.0994,VALID,0.107441,VALID,20.1678,VALID,25,VALID,0.135547,
2012-05-23, 02:50:04,VALID,916.91,VALID,0,VALID,97.1071,VALID,0,VALID,20.1888,VALID,25,VALID,0.0164062,
2012-05-23, 02:51:04,VALID,916.944,VALID,0,VALID,97.1147,VALID,0.107441,VALID,20.1873,VALID,25,VALID,0,
2012-05-23, 02:52:04,VALID,916.951,VALID,0,VALID,97.1223,VALID,0,VALID,20.1873,VALID,25,VALID,0,
2012-05-23, 02:53:04,VALID,916.918,VALID,0,VALID,97.1071,VALID,0,VALID,20.1678,VALID,25,VALID,0,
2012-05-23, 02:54:04,VALID,916.946,VALID,0,VALID,97.0918,VALID,0,VALID,20.1678,VALID,25,VALID,0,
2012-05-23, 02:55:04,VALID,916.974,VALID,0,VALID,97.1147,VALID,0,VALID,20.1678,VALID,25,VALID,0,
2012-05-23, 02:56:04,VALID,916.933,VALID,0,VALID,97.0918,VALID,0,VALID,20.1483,VALID,25,VALID,0,
2012-05-23, 02:57:04,VALID,916.943,VALID,0,VALID,97.0994,VALID,0.107441,VALID,20.1093,VALID,25,VALID,0.0207031,
2012-05-23, 02:58:04,VALID,916.942,VALID,0,VALID,97.0766,VALID,0,VALID,20.1108,VALID,25,VALID,0.0046875,
2012-05-23, 02:59:04,VALID,916.958,VALID,0,VALID,97.069,VALID,0.107441,VALID,20.1093,VALID,25,VALID,0,
2012-05-23, 03:00:04,VALID,916.957,VALID,0,VALID,97.0994,VALID,0.107441,VALID,20.1093,VALID,25,VALID,0,
2012-05-23, 03:01:04,VALID,916.919,VALID,0,VALID,97.0918,VALID,0.107441,VALID,20.0898,VALID,25,VALID,0,
2012-05-23, 03:02:04,VALID,916.927,VALID,0,VALID,97.0766,VALID,0,VALID,20.1093,VALID,25,VALID,0,
2012-05-23, 03:03:04,VALID,916.921,VALID,0,VALID,97.069,VALID,0.107441,VALID,20.0898,VALID,25,VALID,0.747656,
2012-05-23, 03:04:04,VALID,916.911,VALID,0,VALID,97.069,VALID,0,VALID,20.0703,VALID,25,VALID,0.100391,
2012-05-23, 03:05:04,VALID,916.908,VALID,0,VALID,97.0613,VALID,0,VALID,20.0913,VALID,26,VALID,0,
2012-05-23, 03:06:04,VALID,916.911,VALID,0,VALID,97.0766,VALID,0.107441,VALID,20.0703,VALID,26,VALID,0.00546875,
2012-05-23, 03:07:04,VALID,916.927,VALID,0,VALID,97.0613,VALID,0.107441,VALID,20.1108,VALID,26,VALID,0.366406,
2012-05-23, 03:08:04,VALID,916.947,VALID,0,VALID,97.0766,VALID,0,VALID,20.1093,VALID,25,VALID,0.201953,
2012-05-23, 03:09:04,VALID,916.939,VALID,0,VALID,97.069,VALID,0.107441,VALID,20.1108,VALID,25,VALID,0,
2012-05-23, 03:10:04,VALID,916.963,VALID,0,VALID,97.0842,VALID,0,VALID,20.1108,VALID,25,VALID,0,
2012-05-23, 03:11:04,VALID,916.97,VALID,0,VALID,97.0918,VALID,0,VALID,20.0898,VALID,26,VALID,0.0367187,
2012-05-23, 03:12:04,VALID,916.963,VALID,0,VALID,97.0766,VALID,0.107441,VALID,20.1093,VALID,25,VALID,0,
2012-05-23, 03:13:04,VALID,916.967,VALID,0,VALID,97.069,VALID,0.107441,VALID,20.1093,VALID,26,VALID,0.469531,
2012-05-23, 03:14:04,VALID,916.962,VALID,0,VALID,97.0766,VALID,0.107441,VALID,20.1093,VALID,25,VALID,0.319531,
2012-05-23, 03:15:04,VALID,916.981,VALID,0,VALID,97.069,VALID,0,VALID,20.1093,VALID,26,VALID,0.203516,
2012-05-23, 03:16:04,VALID,916.954,VALID,0,VALID,97.0842,VALID,0,VALID,20.1288,VALID,25,VALID,0,
2012-05-23, 03:17:04,VALID,916.975,VALID,0,VALID,97.0766,VALID,0,VALID,20.1498,VALID,25,VALID,0,
2012-05-23, 03:18:04,VALID,916.969,VALID,0,VALID,97.0994,VALID,0.107441,VALID,20.1483,VALID,26,VALID,0,
2012-05-23, 03:19:04,VALID,916.953,VALID,0,VALID,97.0918,VALID,0,VALID,20.1498,VALID,25,VALID,0.658984,
2012-05-23, 03:20:04,VALID,916.977,VALID,0,VALID,97.069,VALID,0,VALID,20.1288,VALID,25,VALID,0.361719,
2012-05-23, 03:21:04,VALID,916.979,VALID,0,VALID,97.0385,VALID,0,VALID,20.1498,VALID,25,VALID,0,
2012-05-23, 03:22:04,VALID,916.955,VALID,0,VALID,97.0385,VALID,0,VALID,20.1288,VALID,25,VALID,0,
2012-05-23, 03:23:04,VALID,916.929,VALID,0,VALID,97.0537,VALID,0,VALID,20.1093,VALID,25,VALID,0,
2012-05-23, 03:24:04,VALID,916.947,VALID,0,VALID,97.0461,VALID,0,VALID,20.1288,VALID,25,VALID,0,
2012-05-23, 03:25:04,VALID,916.936,VALID,0,VALID,97.0385,VALID,0.107441,VALID,20.1483,VALID,25,VALID,0,
2012-05-23, 03:26:04,VALID,916.938,VALID,0,VALID,97.0613,VALID,0,VALID,20.1903,VALID,25,VALID,0,
2012-05-23, 03:27:04,VALID,916.929,VALID,0,VALID,97.0385,VALID,0,VALID,20.1903,VALID,25,VALID,0.728906,
2012-05-23, 03:28:04,VALID,916.919,VALID,0,VALID,97.0461,VALID,0,VALID,20.1693,VALID,25,VALID,0.666406,
2012-05-23, 03:29:04,VALID,916.891,VALID,0,VALID,97.0385,VALID,0,VALID,20.1903,VALID,25,VALID,0.592969,
2012-05-23, 03:30:04,VALID,916.821,VALID,0,VALID,97.0232,VALID,0,VALID,20.1693,VALID,25,VALID,0.589844,
2012-05-23, 03:31:04,VALID,916.862,VALID,0,VALID,97.0232,VALID,0,VALID,20.1513,VALID,24,VALID,0.462109,
2012-05-23, 03:32:04,VALID,916.824,VALID,0,VALID,97.0308,VALID,0,VALID,20.1903,VALID,22,VALID,0.813281,
2012-05-23, 03:33:04,VALID,916.771,VALID,0,VALID,97.0003,VALID,0,VALID,20.1513,VALID,355,VALID,1.40391,
2012-05-23, 03:34:04,VALID,916.761,VALID,0,VALID,96.9851,VALID,0,VALID,20.1303,VALID,12,VALID,1.3457,
2012-05-23, 03:35:04,VALID,916.733,VALID,0,VALID,96.9622,VALID,0,VALID,20.1318,VALID,12,VALID,0.975,
2012-05-23, 03:36:04,VALID,916.686,VALID,0,VALID,96.9394,VALID,0,VALID,20.1303,VALID,12,VALID,1.09336,
2012-05-23, 03:37:04,VALID,916.657,VALID,0,VALID,96.9089,VALID,0,VALID,20.1303,VALID,12,VALID,1.13906,
2012-05-23, 03:38:04,VALID,916.649,VALID,0,VALID,96.8936,VALID,0,VALID,20.1513,VALID,12,VALID,0.933984,
2012-05-23, 03:39:04,VALID,916.649,VALID,0,VALID,96.8479,VALID,0,VALID,20.0913,VALID,12,VALID,0.683984,
2012-05-23, 03:40:04,VALID,916.629,VALID,0,VALID,96.8555,VALID,0,VALID,20.1108,VALID,12,VALID,0.810156,
2012-05-23, 03:41:04,VALID,916.603,VALID,0,VALID,96.8403,VALID,0,VALID,20.1123,VALID,12,VALID,0.969531,
2012-05-23, 03:42:04,VALID,916.646,VALID,0,VALID,96.8555,VALID,0,VALID,20.0718,VALID,12,VALID,1.0625,
2012-05-23, 03:43:04,VALID,916.62,VALID,0,VALID,96.8631,VALID,0,VALID,20.0733,VALID,12,VALID,1.02383,
2012-05-23, 03:44:04,VALID,916.569,VALID,0,VALID,96.9012,VALID,0,VALID,20.0538,VALID,5,VALID,1.31797,
2012-05-23, 03:45:04,VALID,916.555,VALID,0,VALID,96.9165,VALID,0,VALID,20.0328,VALID,3,VALID,0.998047,
2012-05-23, 03:46:04,VALID,916.548,VALID,0,VALID,96.9012,VALID,0,VALID,20.0328,VALID,15,VALID,1.21133,
2012-05-23, 03:47:04,VALID,916.548,VALID,0,VALID,96.8784,VALID,0,VALID,20.0343,VALID,348,VALID,1.09883,